This is the latest recevied weather packets stored in our database for station/object N5DGC. If no packets are shown the sender has not sent any weather packets the latest 10 day(s).
| Time | Temp. | Humidity | Pressure | Rain* | Wind** | Luminosity | Snow |
|---|---|---|---|---|---|---|---|
| 1777938963 | 23.33° C | 16% | 1229 hPa | 0 mm | - | 125 W/m² | - |
| 1777938660 | 23.33° C | 16% | 1229.1 hPa | 0 mm | - | 112 W/m² | - |
| 1777938357 | 23.33° C | 16% | 1229 hPa | 0 mm | - | 114 W/m² | - |
| 1777938054 | 23.33° C | 15% | 1229 hPa | 0 mm | - | 102 W/m² | - |
| 1777937749 | 23.33° C | 15% | 1229.1 hPa | 0 mm | - | 100 W/m² | - |
| 1777937446 | 23.33° C | 15% | 1229.2 hPa | 0 mm | - | 104 W/m² | - |
| 1777937143 | 23.33° C | 14% | 1229.3 hPa | 0 mm | - | 104 W/m² | - |
| 1777936841 | 23.89° C | 14% | 1229.3 hPa | 0 mm | - | 103 W/m² | - |
| 1777936537 | 23.89° C | 14% | 1229.2 hPa | 0 mm | - | 122 W/m² | - |
| 1777936233 | 23.89° C | 14% | 1229.3 hPa | 0 mm | - | 130 W/m² | - |
| 1777935930 | 23.89° C | 13% | 1229.4 hPa | 0 mm | - | 139 W/m² | - |
| 1777935629 | 23.89° C | 13% | 1229.1 hPa | 0 mm | - | 136 W/m² | - |
| 1777935326 | 23.89° C | 13% | 1229.3 hPa | 0 mm | - | 126 W/m² | - |
| 1777935023 | 23.89° C | 13% | 1229.2 hPa | 0 mm | - | 143 W/m² | - |
| 1777934719 | 23.89° C | 13% | 1229.3 hPa | 0 mm | - | 166 W/m² | - |
| 1777934417 | 23.89° C | 13% | 1229.4 hPa | 0 mm | - | 191 W/m² | - |
| 1777934113 | 24.44° C | 13% | 1229.3 hPa | 0 mm | - | 200 W/m² | - |
| 1777933809 | 24.44° C | 13% | 1229.3 hPa | 0 mm | - | 208 W/m² | - |
| 1777933506 | 24.44° C | 13% | 1229.4 hPa | 0 mm | - | 227 W/m² | - |
| 1777933203 | 25° C | 13% | 1229.7 hPa | 0 mm | - | 268 W/m² | - |
| 1777932900 | 24.44° C | 13% | 1229.7 hPa | 0 mm | - | 252 W/m² | - |
| 1777932598 | 24.44° C | 13% | 1229.9 hPa | 0 mm | - | 268 W/m² | - |
| 1777932294 | 25° C | 13% | 1229.7 hPa | 0 mm | - | 263 W/m² | - |
| 1777931991 | 25° C | 12% | 1229.9 hPa | 0 mm | - | 256 W/m² | - |
| 1777931687 | 24.44° C | 12% | 1229.8 hPa | 0 mm | - | 262 W/m² | - |
* Rain latest hour (hover to see other rain measurements)
** Current wind speed in m/s (hover to see current wind gust speed)